Content
SEND FEEDBACK

Daily
Averages
Monthly
Summary
Thailand

KHON KAEN, THAILAND


Home > Asia > Thailand
Elevation: 515 feet     Latitude: 16 20N     Longitude: 102 51E

WEATHER
 
SELECT A DAY
Number of Records: 65,832;   Date Range: 12/16/03 - 9/21/14
 
SHARE

PRINT THIS DATA

[ ← Previous Day ]
WEATHER ALMANAC - DECEMBER 7, 2013
[ Next Day → ]
[ °C ]   °F
Weather ElementAverageHighLow
Temperature73.2 °F82.4 °F (2:00 pm)60.8 °F (6:00 am)
Dewpoint57.9 °F62.6 °F (7:00 pm)54 °F (10:00 am)
Humidity59.1 %94 % (3:00 am)29 % (1:00 pm)
Barometer29.94 in30.01 in (9:00 am)29.86 in (4:00 pm)
Wind Speed6 mph10.4 mph (10:00 am)
Weather ElementAverage
Visibility4.5 mi
Wind DirectionESE (119.1 °)

Weather ElementTotal
Precipitation---
Cooling Degree Days6.6 (Base 65)
Growing Degree Days21.6 (Base 50)
Averaged from 24 records on December 7, 2013
WEATHER CONDITIONS BREAKOUT
WIND DIRECTION BREAKOUT
WEATHER BY HOUR - DECEMBER 7, 2013
[ °C ]   °F
Local TimeTemperatureDewpointHumidityBarometerVisibilityWind DirectionWind SpeedGust SpeedPrecipitationEventsConditions
3:00 AM62.6 °F60.8 °F94 %29.92 in5.0 miNNW (340°)4.6 mphPartly Cloudy
5:00 AM62.6 °F59.0 °F88 %29.92 in4.3 miNorth (350°)6.9 mph
6:00 AM60.8 °F59.0 °F94 %29.95 in3.7 miNorth (360°)5.8 mph
7:00 AM62.0 °F57.0 °F80 %29.97 in2.0 miCalmMist
7:00 AM60.8 °F59.0 °F94 %29.98 in1.9 miNorth (360°)5.8 mphMist
8:00 AM64.4 °F60.8 °F88 %29.98 in3.1 miNorth (360°)6.9 mphMist
9:00 AM71.6 °F59.0 °F64 %30.01 in3.7 miNNE (30°)5.8 mph
10:00 AM74.0 °F54.0 °F40 %29.99 in5.0 miNE (40°)10.4 mphHaze
10:00 AM75.2 °F57.2 °F53 %30.01 in3.7 miNE (50°)10.4 mph
11:00 AM77.0 °F57.2 °F50 %29.98 in5.0 miENE (60°)6.9 mph
12:00 PM78.8 °F57.2 °F47 %29.98 in5.0 miNE (50°)8.1 mph
1:00 PM80.6 °F57.2 °F45 %29.92 in5.6 miNE (50°)6.9 mph
1:00 PM81.0 °F54.0 °F29 %29.91 in6.0 miENE (60°)6.9 mphHaze
2:00 PM82.4 °F57.2 °F42 %29.89 in5.6 miENE (70°)6.9 mph
3:00 PM82.4 °F57.2 °F42 %29.89 in5.6 miVariable4.6 mph
4:00 PM82.0 °F55.0 °F30 %29.86 in6.0 miEast (100°)3.5 mphHaze
4:00 PM80.6 °F57.2 °F45 %29.89 in5.6 miEast (80°)6.9 mphPartly Cloudy
5:00 PM80.6 °F57.2 °F45 %29.89 in5.6 miNE (50°)5.8 mphPartly Cloudy
6:00 PM75.2 °F59.0 °F57 %29.92 in4.3 miENE (60°)3.5 mph
7:00 PM74.0 °F56.0 °F43 %29.91 in4.0 miNE (50°)4.6 mphHaze
7:00 PM75.2 °F62.6 °F65 %29.92 in4.3 miENE (60°)4.6 mph
8:00 PM73.4 °F59.0 °F61 %29.95 in4.3 miENE (60°)6.9 mph
9:00 PM71.6 °F59.0 °F64 %29.95 in4.3 miNE (50°)5.8 mph
10:00 PM69.0 °F58.0 °F59 %29.95 in4.0 miNE (50°)4.6 mphMist
Hourly data recorded from VTUK, located miles away from Khon Kaen, Thailand







STORIES FROM OUR PARTNERS